Location: Oberwangen
(47.4286°N, 8.9679°E)
Time: 23:43:31
(UTC+00:00)

Cosmos 1980 - Pass Details

Date: 20 June 2021
Orbit: 838 x 848 km, 71.0° (Epoch: 23 July)

Event Time Altitude Azimuth Distance (km) Brightness Sun altitude
Exits shadow 21:50:54 21° 185° (S) 1,802 4.9 -16.0°
Maximum altitude 21:54:37 60° 112° (ESE) 968 3.8 -16.2°
Drops below altitude 10° 22:00:12 10° 33° (NNE) 2,482 6.6 -16.6°
Sets 22:02:41 0° 30° (NNE) 3,421 7.5 -16.7°
